カタログに戻る

PEGASUS DEB

運用中PO
NORAD 24236·DEBRIS·🇺🇸 United States

打ち上げ May 19, 1994 から Vandenberg Space Force Base

Loading…

次のパス (今後24時間)

TLE

最新Source: Space-Track

元期: Sep 14, 2026, 08:31 UTC

1 24236U 94029LK  26257.35498215  .00007245  00000-0  84978-3 0  9997
2 24236  81.4290 222.0235 0306239  75.1499 288.3401 14.56527419547834

AllMySatでPEGASUS DEBをリアルタイム追跡

Download on the App Store